Home   Weather   Singen (Hohentwiel)   Past weeks

Flag for Germany Past Weather in Singen (Hohentwiel), Baden-Württemberg, Germany — Yesterday and Last 2 Weeks

54 °F

Light rain. Passing clouds.

Feels Like: 53 °F
Forecast: 36 / 56 °F
Wind: 5 mph from North

Location: Zurich-Kloten

Current Time: Oct 26, 2016 at 7:55:08 AM

Latest Report: Oct 26, 2016 at 7:20 AM

Visibility: 4 mi

Pressure: 30.27 "Hg

Humidity: 88%

Dew Point: 50 °F

Location of Singen (Hohentwiel)Location

Past Weather in Singen (Hohentwiel) — Graph


Singen (Hohentwiel) Temperature Yesterday

Maximum temperature yesterday: 57 °F (at 11:20 AM)
Minimum temperature yesterday: 48 °F (at 12:20 AM)
Average temperature yesterday: 55 °F

High & Low Weather Summary for the Past Weeks

High61 °F (Oct 15, 3:50 PM)100% (Oct 13, 2:50 AM)30.27 "Hg (Oct 13, 2:50 AM)
Low32 °F (Oct 13, 2:50 AM)54% (Oct 12, 3:50 PM)29.62 "Hg (Oct 14, 5:50 PM)
Average47 °F88%30.03 "Hg
* Reported Oct 11 6:20 AM — Oct 26 6:20 AM, Singen (Hohentwiel), Weather by CustomWeather, © 2016

Note: Actual official high and low records may vary slightly from our data, if they occured in-between our weather recording intervals... More about our weather records


Singen (Hohentwiel) Weather History for the Previous 24 Hours

Scroll right to see more
Time TempWeatherWind HumidityBarometerVisibility
6:20 AM
Wed, Oct 26
54 °FPassing clouds.1 mph94%30.27 "Hg3 mi
5:50 AM54 °FPassing clouds.3 mph94%30.27 "Hg2 mi
5:20 AM54 °FPartly cloudy.5 mph94%30.27 "Hg2 mi
4:50 AM54 °FLight rain. Partly cloudy.5 mph94%30.27 "Hg2 mi
4:20 AM54 °FLight rain. Passing clouds.5 mph94%30.27 "Hg3 mi
3:50 AM54 °FPassing clouds.5 mph94%30.27 "Hg4 mi
3:20 AM54 °FPassing clouds.3 mph94%30.27 "Hg4 mi
2:50 AM55 °FFog.3 mph88%30.27 "Hg3 mi
1:50 AM55 °FDrizzle. Fog.5 mph94%30.27 "Hg2 mi
1:20 AM54 °FDrizzle. Fog.3 mph100%30.27 "Hg1 mi
12:50 AM55 °FDrizzle. Fog.3 mph94%30.27 "Hg1 mi
12:20 AM55 °FDrizzle. Fog.3 mph94%30.27 "Hg1 mi
11:50 PM
Tue, Oct 25
55 °FDrizzle. Fog.1 mph94%30.27 "Hg1 mi
11:20 PM55 °FLight rain. Fog.2 mph100%30.27 "Hg1 mi
10:50 PM55 °FFog.1 mph100%30.24 "Hg2 mi
10:20 PM55 °FFog.1 mph100%30.24 "Hg2 mi
9:50 PM55 °FRain showers. Partly cloudy.1 mph100%30.24 "Hg2 mi
9:20 PM55 °FLight rain. Partly cloudy.No wind94%30.24 "Hg3 mi
8:50 PM55 °FFog.3 mph94%30.24 "Hg4 mi
8:20 PM55 °FFog.2 mph94%30.24 "Hg4 mi
7:50 PM55 °FPartly cloudy.2 mph100%30.21 "Hg4 mi
7:20 PM55 °FFog.1 mph100%30.21 "Hg4 mi
6:50 PM57 °FFog.2 mph94%30.21 "Hg4 mi
6:20 PM55 °FPartly cloudy.No wind100%30.21 "Hg4 mi
5:50 PM57 °FLight rain. Broken clouds.No wind94%30.21 "Hg5 mi
5:20 PM57 °FLight rain. Broken clouds.2 mph94%30.21 "Hg6 mi
4:50 PM57 °FSprinkles. Broken clouds.2 mph94%30.21 "Hg5 mi
4:20 PM57 °FSprinkles. Broken clouds.2 mph94%30.21 "Hg5 mi
3:50 PM57 °FSprinkles. Broken clouds.2 mph94%30.18 "Hg4 mi
3:20 PM57 °FSprinkles. Broken clouds.1 mph88%30.18 "Hg4 mi
2:50 PM57 °FSprinkles. Broken clouds.1 mph94%30.18 "Hg6 mi
2:20 PM57 °FSprinkles. Broken clouds.2 mph88%30.18 "Hg5 mi
1:50 PM57 °FSprinkles. Broken clouds.2 mph94%30.18 "Hg4 mi
1:20 PM57 °FSprinkles. Broken clouds.1 mph94%30.18 "Hg4 mi
12:50 PM57 °FSprinkles. Broken clouds.2 mph94%30.18 "Hg4 mi
12:20 PM57 °FSprinkles. Broken clouds.3 mph94%30.18 "HgN/A
11:50 AM57 °FSprinkles. Partly sunny.2 mph88%30.21 "Hg6 mi
11:20 AM57 °FScattered showers. Partly sunny.2 mph88%30.18 "HgN/A
10:50 AM55 °FRain showers. Broken clouds.1 mph94%30.18 "Hg4 mi
10:20 AM55 °FSprinkles. Broken clouds.1 mph94%30.18 "Hg4 mi
9:50 AM55 °FBroken clouds.1 mph94%30.18 "Hg5 mi
9:20 AM55 °FSprinkles. Broken clouds.3 mph94%30.18 "Hg5 mi
8:50 AM55 °FSprinkles. Broken clouds.10 mph94%30.18 "Hg4 mi
8:20 AM55 °FSprinkles. Broken clouds.8 mph94%30.18 "Hg3 mi
7:50 AM55 °FRain showers. Partly cloudy.7 mph94%30.18 "Hg3 mi
7:20 AM55 °FRain showers. Passing clouds.8 mph94%30.18 "Hg2 mi
Weather by CustomWeather, © 2016

See weather overviewHow to use our weather pages